Time,TemperatureF,DewpointF,PressureIn,WindDirection,WindDirectionDegrees,WindSpeedMPH,WindSpeedGustMPH,Humidity,HourlyPrecipIn,Conditions,Clouds,dailyrainin,SoftwareType,DateUTC
2013-04-08 00:02:00,47.0,25.0,-100.00,North,0,1.0,4.0,42,0.00,,,-99.99,,2013-04-08 06:02:00,
2013-04-08 00:12:00,47.0,25.0,-100.00,NNE,20,1.0,5.0,43,0.00,,,-99.99,,2013-04-08 06:12:00,
2013-04-08 00:22:00,47.0,26.0,-100.00,North,0,2.0,4.0,43,0.00,,,-99.99,,2013-04-08 06:22:00,
2013-04-08 00:32:00,47.0,26.0,-100.00,NNE,15,2.0,4.0,43,0.00,,,-99.99,,2013-04-08 06:32:00,
2013-04-08 00:42:00,47.0,26.0,-100.00,SSW,205,0.0,6.0,43,0.00,,,-99.99,,2013-04-08 06:42:00,
2013-04-08 00:52:00,46.0,26.0,-100.00,North,0,2.0,4.0,44,0.00,,,-99.99,,2013-04-08 06:52:00,
2013-04-08 01:02:00,46.0,26.0,-100.00,SW,235,1.0,4.0,45,0.00,,,-99.99,,2013-04-08 07:02:00,
2013-04-08 01:12:00,46.0,26.0,-100.00,NNW,330,4.0,6.0,45,0.00,,,-99.99,,2013-04-08 07:12:00,
2013-04-08 01:22:00,46.0,26.0,-100.00,NNW,330,4.0,6.0,45,0.00,,,-99.99,,2013-04-08 07:22:00,
2013-04-08 01:32:00,46.0,26.0,-100.00,NNW,330,4.0,6.0,45,0.00,,,-99.99,,2013-04-08 07:32:00,
2013-04-08 01:42:00,46.0,26.0,-100.00,South,170,0.0,1.0,46,0.00,,,-99.99,,2013-04-08 07:42:00,
2013-04-08 01:52:00,46.0,26.0,-100.00,South,170,0.0,1.0,46,0.00,,,-99.99,,2013-04-08 07:52:00,
2013-04-08 02:02:00,46.0,27.0,-100.00,NNE,15,1.0,4.0,46,0.00,,,-99.99,,2013-04-08 08:02:00,
2013-04-08 02:11:00,46.0,27.0,-100.00,NNE,15,1.0,4.0,46,0.00,,,-99.99,,2013-04-08 08:11:00,
2013-04-08 02:22:00,46.0,27.0,-100.00,NNE,15,1.0,4.0,46,0.00,,,-99.99,,2013-04-08 08:22:00,
2013-04-08 02:32:00,46.0,27.0,-100.00,SW,220,0.0,4.0,47,0.00,,,-99.99,,2013-04-08 08:32:00,
2013-04-08 02:42:00,46.0,28.0,-100.00,NNE,20,1.0,4.0,47,0.00,,,-99.99,,2013-04-08 08:42:00,
2013-04-08 02:52:00,46.0,27.0,-100.00,NE,50,0.0,3.0,47,0.00,,,-99.99,,2013-04-08 08:52:00,
2013-04-08 03:02:00,46.0,28.0,-100.00,NNW,330,1.0,4.0,47,0.00,,,-99.99,,2013-04-08 09:02:00,
2013-04-08 03:12:00,46.0,27.0,-100.00,North,0,2.0,3.0,47,0.00,,,-99.99,,2013-04-08 09:12:00,
2013-04-08 03:22:00,46.0,27.0,-100.00,ENE,65,1.0,3.0,47,0.00,,,-99.99,,2013-04-08 09:22:00,
2013-04-08 03:33:00,46.0,27.0,-100.00,West,260,1.0,2.0,47,0.00,,,-99.99,,2013-04-08 09:33:00,
2013-04-08 03:42:00,46.0,27.0,-100.00,North,10,1.0,2.0,47,0.00,,,-99.99,,2013-04-08 09:42:00,
2013-04-08 03:52:00,47.0,28.0,-100.00,NW,325,2.0,6.0,47,0.00,,,-99.99,,2013-04-08 09:52:00,
2013-04-08 04:03:00,46.0,27.0,-100.00,NE,40,3.0,5.0,47,0.00,,,-99.99,,2013-04-08 10:03:00,
2013-04-08 04:12:00,46.0,27.0,-100.00,SSE,165,6.0,9.0,47,0.00,,,-99.99,,2013-04-08 10:12:00,
2013-04-08 04:23:00,46.0,27.0,-100.00,South,190,3.0,8.0,47,0.00,,,-99.99,,2013-04-08 10:23:00,
2013-04-08 04:32:00,46.0,27.0,-100.00,North,5,2.0,7.0,48,0.00,,,-99.99,,2013-04-08 10:32:00,
2013-04-08 04:42:00,46.0,27.0,-100.00,South,180,2.0,5.0,48,0.00,,,-99.99,,2013-04-08 10:42:00,
2013-04-08 04:52:00,46.0,28.0,-100.00,North,350,2.0,4.0,48,0.00,,,-99.99,,2013-04-08 10:52:00,
2013-04-08 05:02:00,46.0,28.0,-100.00,NNE,30,1.0,4.0,48,0.00,,,-99.99,,2013-04-08 11:02:00,
2013-04-08 05:12:00,46.0,27.0,-100.00,NNW,345,2.0,5.0,48,0.00,,,-99.99,,2013-04-08 11:12:00,
2013-04-08 05:22:00,46.0,27.0,-100.00,North,0,3.0,4.0,47,0.00,,,-99.99,,2013-04-08 11:22:00,
2013-04-08 05:32:00,46.0,27.0,-100.00,NNE,30,2.0,5.0,47,0.00,,,-99.99,,2013-04-08 11:32:00,
2013-04-08 05:42:00,46.0,27.0,-100.00,ENE,65,1.0,4.0,47,0.00,,,-99.99,,2013-04-08 11:42:00,
2013-04-08 05:52:00,46.0,27.0,-100.00,East,90,1.0,6.0,48,0.00,,,-99.99,,2013-04-08 11:52:00,
2013-04-08 06:02:00,46.0,27.0,-100.00,East,95,1.0,6.0,48,0.00,,,-99.99,,2013-04-08 12:02:00,
2013-04-08 06:12:00,46.0,27.0,-100.00,North,0,1.0,4.0,48,0.00,,,-99.99,,2013-04-08 12:12:00,
2013-04-08 06:22:00,46.0,27.0,-100.00,WNW,295,1.0,6.0,47,0.00,,,-99.99,,2013-04-08 12:22:00,
2013-04-08 06:32:00,46.0,27.0,-100.00,NE,35,1.0,4.0,48,0.00,,,-99.99,,2013-04-08 12:32:00,
2013-04-08 06:42:00,45.0,27.0,-100.00,ESE,120,0.0,4.0,48,0.00,,,-99.99,,2013-04-08 12:42:00,
2013-04-08 06:52:00,46.0,27.0,-100.00,NNE,30,2.0,6.0,48,0.00,,,-99.99,,2013-04-08 12:52:00,
2013-04-08 07:02:00,45.0,27.0,-100.00,SW,235,1.0,4.0,47,0.00,,,-99.99,,2013-04-08 13:02:00,
2013-04-08 07:12:00,45.0,27.0,-100.00,NW,320,2.0,5.0,48,0.00,,,-99.99,,2013-04-08 13:12:00,
2013-04-08 07:22:00,45.0,27.0,-100.00,South,190,1.0,5.0,48,0.00,,,-99.99,,2013-04-08 13:22:00,
2013-04-08 07:32:00,45.0,27.0,-100.00,NW,325,2.0,3.0,48,0.00,,,-99.99,,2013-04-08 13:32:00,
2013-04-08 07:42:00,46.0,27.0,-100.00,SSE,165,4.0,6.0,48,0.00,,,-99.99,,2013-04-08 13:42:00,
2013-04-08 07:52:00,46.0,27.0,-100.00,South,190,0.0,4.0,48,0.00,,,-99.99,,2013-04-08 13:52:00,
2013-04-08 08:02:00,46.0,27.0,-100.00,NW,310,2.0,4.0,47,0.00,,,-99.99,,2013-04-08 14:02:00,
2013-04-08 08:12:00,46.0,27.0,-100.00,NE,35,1.0,4.0,47,0.00,,,-99.99,,2013-04-08 14:12:00,
2013-04-08 08:22:00,46.0,27.0,-100.00,NNW,330,1.0,5.0,47,0.00,,,-99.99,,2013-04-08 14:22:00,
2013-04-08 08:32:00,47.0,28.0,-100.00,South,170,0.0,4.0,47,0.00,,,-99.99,,2013-04-08 14:32:00,
2013-04-08 08:42:00,47.0,28.0,-100.00,South,180,1.0,6.0,47,0.00,,,-99.99,,2013-04-08 14:42:00,
2013-04-08 08:52:00,47.0,28.0,-100.00,North,0,3.0,6.0,46,0.00,,,-99.99,,2013-04-08 14:52:00,
2013-04-08 09:02:00,48.0,28.0,-100.00,NE,40,2.0,6.0,45,0.00,,,-99.99,,2013-04-08 15:02:00,
2013-04-08 09:12:00,48.0,28.0,-100.00,NW,320,2.0,6.0,44,0.00,,,-99.99,,2013-04-08 15:12:00,
2013-04-08 09:22:00,48.0,28.0,-100.00,WNW,295,1.0,4.0,44,0.00,,,-99.99,,2013-04-08 15:22:00,
2013-04-08 09:33:00,49.0,28.0,-100.00,NNE,25,3.0,7.0,43,0.00,,,-99.99,,2013-04-08 15:33:00,
2013-04-08 09:42:00,49.0,28.0,-100.00,North,10,3.0,6.0,43,0.00,,,-99.99,,2013-04-08 15:42:00,
2013-04-08 09:52:00,49.0,27.0,-100.00,North,0,2.0,6.0,43,0.00,,,-99.99,,2013-04-08 15:52:00,
2013-04-08 10:03:00,49.0,28.0,-100.00,NNW,340,2.0,6.0,43,0.00,,,-99.99,,2013-04-08 16:03:00,
2013-04-08 10:12:00,49.0,27.0,-100.00,ENE,65,4.0,7.0,42,0.00,,,-99.99,,2013-04-08 16:12:00,
2013-04-08 10:22:00,49.0,28.0,-100.00,NE,40,4.0,6.0,42,0.00,,,-99.99,,2013-04-08 16:22:00,
2013-04-08 10:32:00,49.0,28.0,-100.00,NE,40,4.0,6.0,42,0.00,,,-99.99,,2013-04-08 16:32:00,
2013-04-08 10:42:00,49.0,28.0,-100.00,WSW,255,1.0,9.0,42,0.00,,,-99.99,,2013-04-08 16:42:00,
2013-04-08 10:52:00,50.0,27.0,-100.00,North,5,2.0,9.0,41,0.00,,,-99.99,,2013-04-08 16:52:00,
2013-04-08 11:02:00,50.0,27.0,-100.00,North,0,2.0,6.0,41,0.00,,,-99.99,,2013-04-08 17:02:00,
2013-04-08 11:11:00,50.0,28.0,-100.00,North,0,2.0,6.0,41,0.00,,,-99.99,,2013-04-08 17:11:00,
2013-04-08 11:22:00,51.0,28.0,-100.00,SE,125,1.0,6.0,40,0.00,,,-99.99,,2013-04-08 17:22:00,
2013-04-08 11:32:00,51.0,28.0,-100.00,South,180,4.0,7.0,40,0.00,,,-99.99,,2013-04-08 17:32:00,
2013-04-08 11:43:00,52.0,28.0,-100.00,SSE,165,3.0,9.0,39,0.00,,,-99.99,,2013-04-08 17:43:00,
2013-04-08 11:52:00,53.0,28.0,-100.00,SSE,165,3.0,7.0,38,0.00,,,-99.99,,2013-04-08 17:52:00,
2013-04-08 12:02:00,54.0,28.0,-100.00,South,185,4.0,7.0,36,0.00,,,-99.99,,2013-04-08 18:02:00,
2013-04-08 12:12:00,55.0,28.0,-100.00,East,85,1.0,6.0,35,0.00,,,-99.99,,2013-04-08 18:12:00,
2013-04-08 12:22:00,55.0,28.0,-100.00,South,190,1.0,4.0,35,0.00,,,-99.99,,2013-04-08 18:22:00,
2013-04-08 12:32:00,56.0,28.0,-100.00,SSE,150,2.0,4.0,34,0.00,,,-99.99,,2013-04-08 18:32:00,
2013-04-08 12:42:00,56.0,28.0,-100.00,South,170,3.0,6.0,33,0.00,,,-99.99,,2013-04-08 18:42:00,
2013-04-08 12:52:00,55.0,27.0,-100.00,SE,145,1.0,2.0,33,0.00,,,-99.99,,2013-04-08 18:52:00,
2013-04-08 13:02:00,55.0,26.0,-100.00,NE,35,0.0,2.0,33,0.00,,,-99.99,,2013-04-08 19:02:00,
2013-04-08 13:12:00,55.0,27.0,-100.00,South,190,1.0,4.0,33,0.00,,,-99.99,,2013-04-08 19:12:00,
2013-04-08 13:22:00,55.0,27.0,-100.00,SE,145,0.0,2.0,33,0.00,,,-99.99,,2013-04-08 19:22:00,
2013-04-08 13:33:00,55.0,27.0,-100.00,NNW,335,2.0,4.0,33,0.00,,,-99.99,,2013-04-08 19:33:00,
2013-04-08 13:42:00,56.0,26.0,-100.00,NNW,340,4.0,12.0,31,0.00,,,-99.99,,2013-04-08 19:42:00,
2013-04-08 13:52:00,59.0,26.0,-100.00,ENE,60,7.0,15.0,28,0.00,,,-99.99,,2013-04-08 19:52:00,
2013-04-08 14:02:00,62.0,26.0,-100.00,SSW,195,1.0,6.0,25,0.00,,,-99.99,,2013-04-08 20:02:00,
2013-04-08 14:12:00,60.0,24.0,-100.00,South,170,4.0,10.0,24,0.00,,,-99.99,,2013-04-08 20:12:00,
2013-04-08 14:22:00,60.0,24.0,-100.00,SE,140,4.0,6.0,24,0.00,,,-99.99,,2013-04-08 20:22:00,
2013-04-08 14:32:00,60.0,24.0,-100.00,SW,220,4.0,7.0,24,0.00,,,-99.99,,2013-04-08 20:32:00,
2013-04-08 14:42:00,60.0,23.0,-100.00,SSE,160,2.0,4.0,23,0.00,,,-99.99,,2013-04-08 20:42:00,
2013-04-08 14:52:00,59.0,23.0,-100.00,SSE,160,7.0,24.0,24,0.00,,,-99.99,,2013-04-08 20:52:00,
2013-04-08 15:02:00,56.0,23.0,-100.00,South,190,6.0,19.0,27,0.00,,,-99.99,,2013-04-08 21:02:00,
2013-04-08 15:12:00,55.0,22.0,-100.00,SSE,160,7.0,13.0,27,0.00,,,-99.99,,2013-04-08 21:12:00,
2013-04-08 15:22:00,55.0,23.0,-100.00,WSW,240,7.0,21.0,28,0.00,,,-99.99,,2013-04-08 21:22:00,
2013-04-08 15:32:00,55.0,23.0,-100.00,SSE,160,7.0,21.0,29,0.00,,,-99.99,,2013-04-08 21:32:00,
2013-04-08 15:42:00,54.0,23.0,-100.00,South,185,4.0,15.0,29,0.00,,,-99.99,,2013-04-08 21:42:00,
2013-04-08 15:52:00,54.0,24.0,-100.00,SSE,155,2.0,9.0,30,0.00,,,-99.99,,2013-04-08 21:52:00,
2013-04-08 16:02:00,55.0,24.0,-100.00,South,170,2.0,6.0,30,0.00,,,-99.99,,2013-04-08 22:02:00,
2013-04-08 16:12:00,55.0,24.0,-100.00,South,170,1.0,4.0,30,0.00,,,-99.99,,2013-04-08 22:12:00,
2013-04-08 16:22:00,55.0,25.0,-100.00,SSE,160,1.0,2.0,31,0.00,,,-99.99,,2013-04-08 22:22:00,
2013-04-08 16:32:00,55.0,25.0,-100.00,SSE,160,1.0,2.0,31,0.00,,,-99.99,,2013-04-08 22:32:00,
2013-04-08 16:42:00,55.0,25.0,-100.00,NE,45,4.0,9.0,31,0.00,,,-99.99,,2013-04-08 22:42:00,
2013-04-08 16:52:00,55.0,25.0,-100.00,NE,45,4.0,9.0,31,0.00,,,-99.99,,2013-04-08 22:52:00,
2013-04-08 17:02:00,55.0,25.0,-100.00,SE,135,3.0,8.0,31,0.00,,,-99.99,,2013-04-08 23:02:00,
2013-04-08 17:12:00,54.0,26.0,-100.00,SE,140,0.0,6.0,32,0.00,,,-99.99,,2013-04-08 23:12:00,
2013-04-08 17:22:00,54.0,26.0,-100.00,SE,140,0.0,6.0,32,0.00,,,-99.99,,2013-04-08 23:22:00,
2013-04-08 17:32:00,53.0,27.0,-100.00,South,190,4.0,14.0,36,0.00,,,-99.99,,2013-04-08 23:32:00,
2013-04-08 17:42:00,51.0,28.0,-100.00,South,170,4.0,7.0,39,0.00,,,-99.99,,2013-04-08 23:42:00,
2013-04-08 17:52:00,51.0,28.0,-100.00,SSE,165,4.0,7.0,40,0.00,,,-99.99,,2013-04-08 23:52:00,
2013-04-08 18:02:00,51.0,28.0,-100.00,SW,220,1.0,7.0,41,0.00,,,-99.99,,2013-04-09 00:02:00,
2013-04-08 18:12:00,51.0,29.0,-100.00,North,5,2.0,5.0,41,0.00,,,-99.99,,2013-04-09 00:12:00,
2013-04-08 18:22:00,51.0,29.0,-100.00,NW,305,1.0,4.0,41,0.00,,,-99.99,,2013-04-09 00:22:00,
2013-04-08 18:32:00,51.0,29.0,-100.00,SSE,165,1.0,2.0,43,0.00,,,-99.99,,2013-04-09 00:32:00,
2013-04-08 18:42:00,50.0,31.0,-100.00,North,350,1.0,3.0,47,0.00,,,-99.99,,2013-04-09 00:42:00,
2013-04-08 18:52:00,49.0,32.0,-100.00,South,185,2.0,4.0,51,0.00,,,-99.99,,2013-04-09 00:52:00,
2013-04-08 19:02:00,49.0,33.0,-100.00,SE,140,2.0,4.0,53,0.00,,,-99.99,,2013-04-09 01:02:00,
2013-04-08 19:12:00,49.0,33.0,-100.00,South,180,1.0,2.0,54,0.00,,,-99.99,,2013-04-09 01:12:00,
2013-04-08 19:22:00,49.0,33.0,-100.00,East,100,2.0,7.0,54,0.00,,,-99.99,,2013-04-09 01:22:00,
2013-04-08 19:32:00,49.0,33.0,-100.00,SSE,160,4.0,11.0,54,0.00,,,-99.99,,2013-04-09 01:32:00,
2013-04-08 19:42:00,48.0,34.0,-100.00,SSE,150,3.0,7.0,58,0.00,,,-99.99,,2013-04-09 01:42:00,
2013-04-08 19:52:00,46.0,35.0,-100.00,South,180,4.0,7.0,63,0.00,,,-99.99,,2013-04-09 01:52:00,
2013-04-08 20:02:00,46.0,35.0,-100.00,SW,215,1.0,7.0,67,0.00,,,-99.99,,2013-04-09 02:02:00,
2013-04-08 20:12:00,45.0,36.0,-100.00,SSE,155,1.0,4.0,69,0.00,,,-99.99,,2013-04-09 02:12:00,
2013-04-08 20:22:00,45.0,37.0,-100.00,NNW,345,3.0,9.0,72,0.00,,,-99.99,,2013-04-09 02:22:00,
2013-04-08 20:32:00,45.0,38.0,-100.00,SSE,155,2.0,6.0,74,0.10,,,-99.99,,2013-04-09 02:32:00,
2013-04-08 20:42:00,44.0,38.0,-100.00,SSE,150,2.0,4.0,78,0.00,,,-99.99,,2013-04-09 02:42:00,
2013-04-08 20:52:00,44.0,38.0,-100.00,ENE,65,1.0,4.0,81,0.00,,,-99.99,,2013-04-09 02:52:00,
2013-04-08 21:02:00,43.0,38.0,-100.00,SSW,205,0.0,6.0,83,0.10,,,-99.99,,2013-04-09 03:02:00,
2013-04-08 21:12:00,43.0,39.0,-100.00,ENE,65,1.0,1.0,85,0.00,,,-99.99,,2013-04-09 03:12:00,
2013-04-08 21:21:00,43.0,39.0,-100.00,SW,235,1.0,5.0,86,0.00,,,-99.99,,2013-04-09 03:21:00,
2013-04-08 21:32:00,43.0,40.0,-100.00,North,0,3.0,6.0,87,0.00,,,-99.99,,2013-04-09 03:32:00,
2013-04-08 21:42:00,43.0,40.0,-100.00,West,280,1.0,6.0,89,0.00,,,-99.99,,2013-04-09 03:42:00,
2013-04-08 21:52:00,43.0,41.0,-100.00,NNW,345,2.0,4.0,89,0.00,,,-99.99,,2013-04-09 03:52:00,
2013-04-08 22:02:00,43.0,40.0,-100.00,East,95,1.0,5.0,89,0.00,,,-99.99,,2013-04-09 04:02:00,
2013-04-08 22:12:00,43.0,40.0,-100.00,South,180,2.0,6.0,89,0.00,,,-99.99,,2013-04-09 04:12:00,
2013-04-08 22:22:00,44.0,41.0,-100.00,ENE,65,2.0,6.0,90,0.00,,,-99.99,,2013-04-09 04:22:00,
2013-04-08 22:32:00,43.0,40.0,-100.00,ESE,120,1.0,4.0,90,0.00,,,-99.99,,2013-04-09 04:32:00,
2013-04-08 22:42:00,43.0,40.0,-100.00,North,0,2.0,4.0,90,0.00,,,-99.99,,2013-04-09 04:42:00,
2013-04-08 22:52:00,43.0,40.0,-100.00,North,0,2.0,4.0,90,0.00,,,-99.99,,2013-04-09 04:52:00,
2013-04-08 23:02:00,42.0,40.0,-100.00,North,5,1.0,2.0,91,0.00,,,-99.99,,2013-04-09 05:02:00,
2013-04-08 23:12:00,43.0,40.0,-100.00,North,10,0.0,4.0,91,0.00,,,-99.99,,2013-04-09 05:12:00,
2013-04-08 23:22:00,42.0,40.0,-100.00,SSW,195,0.0,3.0,91,0.00,,,-99.99,,2013-04-09 05:22:00,
2013-04-08 23:32:00,42.0,40.0,-100.00,East,95,1.0,4.0,91,0.00,,,-99.99,,2013-04-09 05:32:00,
2013-04-08 23:42:00,42.0,40.0,-100.00,SW,225,1.0,4.0,91,0.00,,,-99.99,,2013-04-09 05:42:00,
2013-04-08 23:52:00,42.0,40.0,-100.00,NW,305,2.0,3.0,91,0.00,,,-99.99,,2013-04-09 05:52:00,